Location: Newark
(41.6478°N, 9.0078°E)
Time: 17:48:38
(UTC+00:00)

ISS - Visible Passes

Search period start: 13 November 2019 00:00
Search period end: 23 November 2019 00:00
Orbit: 412 x 421 km, 51.6° (Epoch: 13 November)

Date Brightness Start Highest point End Pass type
(mag) Time Alt. Az. Time Alt. Az. Time Alt. Az.
13 Nov -2.4 04:48:32 23° SW 04:48:46 24° SW 04:51:32 10° S visible
14 Nov -1.4 04:02:37 18° SSE 04:02:37 18° SSE 04:03:42 10° SSE visible
19 Nov -0.9 18:14:39 10° SSW 18:14:52 11° SSW 18:14:52 11° SSW visible
20 Nov -1.8 17:27:01 10° S 17:28:51 17° SE 17:28:51 17° SE visible
21 Nov -1.8 18:13:56 10° SW 18:15:39 28° SW 18:15:39 28° SW visible
22 Nov -3.4 17:25:36 10° SW 17:28:51 48° SE 17:29:25 42° ESE visible
